Weather in Chulakovka

Ukraine / Kherson District     46°21′37″N   32°20′52″E
temp.,
°C
wind,
m/s
gust,
m/s
humid.,
%
clouds,
%
prec.,
mm/h
press.,
hPa
HPBL,
m
7 march, sun
sun723:00−1nnw48600 0.0 1029327
02:00−1wnw35580 0.0 1029207
05:000wnw36590 0.0 1029339
08:00+2w67550 0.0 10281198
11:00+3w78470 0.0 10261379
14:00+3wsw89490 0.0 10241249
17:00+3wsw810530 0.0 1021953
20:00+3sw812640 0.0 1021621
8 march, mon
mon823:00+3sw813695 0.0 1019588
02:00+3sw8137216 0.0 1018561
05:00+3sw6127886 0.0 1016421
08:00+4wsw697389 0.0 1016668
11:00+5wsw78611 0.0 1015823
14:00+6wsw66570 0.0 1014619
17:00+5wsw466455 0.0 1014302
20:00+4w476577 0.0 1015219
9 march, tue
tue923:00+3ne227172 0.0 101749
02:00+2n347257 0.0 1017126
05:00+1nnw357396 0.0 1018244
08:00+1n356497 0.0 1020370
11:00+3nnw454532 0.0 10211168
14:00+4nw454116 0.0 10211357
17:00+4nw45450 0.0 10201321
20:00+2nnw35580 0.0 1022291
10 march, wed
wed1023:000ne4658100 0.0 1023268
02:00−1ne3461100 0.0 1023155
05:00−1ene356598 0.0 1022196
08:000e566198 0.0 1023428
11:00+2ene5543100 0.0 10231009
14:00+4ene4436100 0.0 10221251
17:00+3ne5540100 0.0 10211174
20:00+1ne5744100 0.0 1023424
11 march, thu
thu1123:00−1ne474669 0.0 1024251
02:00−1ne474735 0.0 1025238
05:00−2ne45500 0.0 1026188
08:000ene45440 0.0 1027360
11:00+2e33310 0.0 10271233
14:00+3ssw42390 0.0 1026991
17:00+2ssw34460 0.0 1026645
20:00+1s345316 0.0 1026298